YUZGU TX (RS9S)

Last updated on Tue Aug 30 2022 00:02:06 GMT+0000 (Coordinated Universal Time)

1 53312U 98067TX 22241.52073350 .00032632 00000+0 52450-3 0 9994 2 53312 51.6426 332.9106 0001687 188.1578 171.9385 15.52701518 6043

Satellite not in orbit

YUZGU TX (RS9S)